sat.trackr.live / text

‹ back to catalog

STARLINK-31156

NORAD 58743 · 2024-005R

PAYLOAD ACTIVE UNKNOWN

§ Identity

Operator
Country
US
Launch date
2024-01-07
Launch site
AFETR
Launch vehicle
Mass (kg)
RCS (m²)

Purposes: comms

External: N2YO · Heavens-Above · Gunter

§ Orbital elements

Epoch: 2026-05-25T01:15:14.355072Z

Period
94.27 min
Inclination
43.0038°
Eccentricity
0.0001120
Mean motion
15.27571863 rev/d
Perigee alt
482.3 km
Apogee alt
483.8 km
Semi-major
6,861.2 km
B*
-2.8177e-5
RAAN
148.3968°
Arg perigee
276.1976°
Mean anomaly
83.8748°
Rev number
13,217

§ Raw data

STARLINK-311561 58743U 24005R   26145.05224948 -.00001037  00000+0 -28177-4 0  99912 58743  43.0038 148.3968 0001120 276.1976  83.8748 15.27571863132175

JSON: /api/v1/satellites/58743 · /tle

For live sub-satellite position, see the globe view (requires WebGL).

§ Visibility from observer

Set your observer location to see the next 7 days of passes ≥ 10°. The values pass through the URL so the page stays shareable.

No JS? Fill the form by hand. The geolocation button needs JavaScript.